Location: Bukit Nyuki
(2.5885°N, 113.7476°E)
Time: 06:44:14
(UTC+00:00)

CZ-2C R/B - Pass Details

Date: 18 May 2021
Orbit: 390 x 580 km, 35.0° (Epoch: 22 June)

Event Time Altitude Azimuth Distance (km) Brightness Sun altitude
Exits shadow 21:12:32 14° 186° (S) 1,211 2.8 -15.3°
Drops below altitude 10° 21:13:24 10° 172° (S) 1,427 3.3 -15.1°
Sets 21:16:00 0° 151° (SSE) 2,306 4.6 -14.5°
